User: anonymous   Login
Location: Unspecified
(0.0000°N, 0.0000°E)
Time: 10:20:18
(UTC+00:00)
Language:

USA 264 - Orbit

View from above orbital plane
View from above orbital plane
View from above satellite
View from above satellite

Ground track
Ground track

The orbit data is extracted from the following two-line orbital elements,

1 40964U 15058A   17288.81490703 0.00000000  00000-0  00000-0 0    03
2 40964  63.4416 213.8506 0062660 176.2400 183.7600 13.40736620    01
Epoch (UTC): 15 October 2017 19:33:27
Eccentricity: 0.0062660
inclination: 63.4416°
perigee height: 1059 km
apogee height: 1153 km
right ascension of ascending node: 213.8506°
argument of perigee: 176.2400°
revolutions per day: 13.40736620
mean anomaly at epoch: 183.7600°
orbit number at epoch: 0

The dashed part of the orbit path shows where the satellite is in the earth's shadow,  

DLR